[[{"header":{"parameterUnit":"m.s-1","parameterCategory":1,"la1":30.2992,"la2":30.254,"lo1":-89.0895,"lo2":-89.0443,"dy":0.0025,"dx":0.0025,"nx":19,"ny":19,"refTime":"2026-05-05T03:00:00:Z","depth":0,"parameterNumber":2,"parameterNumberName":"U-component_of_WINDS"},"data":[0,0,0,0.6648,0.6647,0.659,0.659,0.6533,0.6532,0,0,0,0,0,0,0,0,0,0,0,0.6675,0.6675,0.6648,0.6647,0.659,0.659,0.6533,0.6532,0,0,0,0,0,0,0,0,0,0,0,0.6675,0.6675,0.6675,0.6646,0.6591,0.659,0.6533,0.657,0,0,0,0,0,0,0,0,0,0,0.6622,0.6658,0.6675,0.6675,0.6646,0.6591,0.659,0.6571,0.6567,0.6565,0,0.6567,0,0.6549,0.6529,0.6529,0,0,0,0.6638,0.6661,0.6636,0.6675,0.6646,0.6591,0.6613,0.6569,0.6565,0.656,0.6566,0.6563,0.6548,0.6529,0.6529,0.6545,0.6545,0,0,0.6641,0.667,0.6639,0.6634,0.6646,0.6615,0.6612,0.6566,0.6574,0.6566,0.6562,0.6547,0.6529,0.6529,0.6544,0.6545,0,0,0,0.6656,0.6673,0.6649,0.6637,0.6626,0.6614,0.661,0.6576,0.6566,0.6561,0.6546,0.6529,0.6528,0.6544,0.6544,0.6595,0,0,0,0.6657,0.6681,0.6651,0.6668,0.6627,0.6601,0.6621,0.6569,0.6563,0.6547,0.6529,0.6528,0.6543,0.6544,0.6592,0.6613,0,0,0,0.6675,0.6683,0.6679,0.6669,0.6646,0.6601,0.6588,0.6567,0.6554,0.6529,0.6528,0.6543,0.6544,0.659,0.6609,0.6625,0,0,0,0.6701,0.6724,0.668,0.67,0.6647,0.6633,0.6588,0.6575,0.656,0.6528,0.6543,0.6544,0.6589,0.6607,0.6622,0.6642,0.6653,0,0,0.6746,0.6731,0.674,0.6698,0.67,0.6639,0.6647,0.6605,0.6576,0.6556,0.6556,0.6593,0.6609,0.6624,0.6708,0.6717,0,0,0,0.6764,0.6771,0.6765,0.6752,0.6721,0.6696,0.665,0.6634,0.6616,0.6572,0.6602,0.6611,0.6618,0.6626,0.6634,0.6638,0.655,0.6549,0.6549,0.6868,0.683,0.6841,0.6797,0.6784,0.6737,0.6722,0.6692,0.6658,0.6665,0.6659,0.6715,0.6725,0.6731,0.6735,0.6667,0.6667,0.6667,0.6667,0.6928,0.6931,0.6884,0.6879,0.6838,0.6832,0.6786,0.6762,0.6749,0.6717,0.6721,0.6688,0.6742,0.6744,0.6671,0.667,0.667,0.6669,0.6669,0.6991,0.6986,0.6967,0.6943,0.6929,0.6882,0.6872,0.6835,0.68,0.6805,0.6793,0.6792,0.6785,0.6802,0.6802,0.6802,0.6802,0.6803,0.6803,0.7063,0.704,0.7037,0.7006,0.6992,0.6969,0.692,0.6905,0.6878,0.6851,0.6851,0.6814,0.6755,0.674,0.6805,0.6805,0.6805,0.6804,0.6804,0.7137,0.7114,0.711,0.7096,0.7055,0.7042,0.6995,0.6967,0.6949,0.6944,0.6906,0.6869,0.685,0.6844,0.6831,0.6916,0.6916,0.6916,0.6916,0.7189,0.7176,0.7162,0.7142,0.7118,0.7075,0.7069,0.7031,0.6987,0.6973,0.6955,0.6936,0.6931,0.6914,0.6906,0.6894,0.6993,0.6993,0.6993,0.7231,0.7214,0.7217,0.7176,0.7141,0.7111,0.7103,0.708,0.7026,0.6995,0.696,0.6957,0.6925,0.6917,0.6885,0.6873,0.685,0,0]},{"header":{"parameterUnit":"m.s-1","parameterCategory":1,"la1":30.2992,"la2":30.254,"lo1":-89.0895,"lo2":-89.0443,"dy":0.0025,"dx":0.0025,"nx":19,"ny":19,"refTime":"2026-05-05T03:00:00:Z","depth":0,"parameterNumber":3,"parameterNumberName":"V-component_of_WINDS"},"data":[0,0,0,6.4649,6.4654,6.489,6.4891,6.5183,6.5185,0,0,0,0,0,0,0,0,0,0,0,6.4577,6.4579,6.4648,6.4654,6.489,6.4891,6.5182,6.5185,0,0,0,0,0,0,0,0,0,0,0,6.4576,6.4579,6.4581,6.4655,6.489,6.4891,6.5182,6.5006,0,0,0,0,0,0,0,0,0,0,6.4777,6.4712,6.4578,6.4582,6.4656,6.489,6.4891,6.4997,6.5017,6.5073,0,6.5127,0,6.5161,6.5205,6.5206,0,0,0,6.4654,6.4696,6.4761,6.4582,6.4659,6.4889,6.4783,6.5008,6.503,6.5098,6.5131,6.5142,6.5166,6.5206,6.5208,6.5541,6.5543,0,0,6.4641,6.4618,6.4746,6.4776,6.4744,6.4776,6.4791,6.5022,6.5054,6.5132,6.5149,6.5171,6.5208,6.5211,6.554,6.5541,0,0,0,6.4603,6.4609,6.4669,6.4763,6.4807,6.4783,6.48,6.5044,6.5065,6.5152,6.5174,6.521,6.5214,6.5538,6.554,6.5597,0,0,0,6.4595,6.4588,6.4663,6.4652,6.4803,6.493,6.4817,6.5049,6.5076,6.5173,6.521,6.5216,6.5536,6.5539,6.5592,6.5627,0,0,0,6.4562,6.4584,6.4618,6.465,6.4752,6.4927,6.4961,6.5056,6.509,6.5206,6.5217,6.5535,6.5539,6.5587,6.562,6.5707,0,0,0,6.4519,6.4665,6.4619,6.4789,6.475,6.4962,6.496,6.5118,6.5225,6.5212,6.5537,6.554,6.5586,6.5615,6.5702,6.5776,6.5806,0,0,6.469,6.4685,6.4786,6.4752,6.4967,6.4927,6.5149,6.5266,6.5295,6.5456,6.5464,6.5594,6.5619,6.5706,6.5981,6.6004,0,0,0,6.4833,6.4905,6.4967,6.507,6.5164,6.5246,6.5332,6.5375,6.5513,6.5375,6.565,6.5666,6.5718,6.5754,6.5774,6.5818,6.5556,6.5556,6.5556,6.5042,6.5074,6.5243,6.5303,6.5401,6.5487,6.5568,6.5639,6.5641,6.5705,6.5753,6.5917,6.5958,6.5973,6.6019,6.5796,6.5796,6.5796,6.5797,6.5294,6.5401,6.54,6.5564,6.5594,6.5731,6.5817,6.5813,6.5941,6.5884,6.5931,6.5864,6.5998,6.604,6.5801,6.58,6.58,6.5799,6.5799,6.5434,6.549,6.5542,6.569,6.58,6.5853,6.5976,6.5999,6.6021,6.6068,6.6119,6.6118,6.6118,6.6091,6.6091,6.6092,6.6092,6.6093,6.6093,6.5558,6.5614,6.5718,6.5829,6.5895,6.5986,6.6071,6.6136,6.6213,6.6219,6.622,6.6212,6.6007,6.5953,6.6102,6.61,6.6099,6.6098,6.6098,6.58,6.5749,6.5908,6.5975,6.6105,6.621,6.6238,6.6367,6.6424,6.6482,6.6465,6.631,6.6305,6.6289,6.6245,6.646,6.646,6.646,6.646,6.5917,6.5917,6.6084,6.6189,6.6294,6.6334,6.6507,6.6573,6.6632,6.6668,6.664,6.6584,6.6567,6.6571,6.655,6.6509,6.6786,6.6787,6.6787,6.6066,6.6077,6.6223,6.6284,6.6386,6.6471,6.6634,6.675,6.6806,6.68,6.6695,6.6682,6.6591,6.6561,6.6552,6.6518,6.6444,0,0]}]]